Flag for Greece Weather past 2 weeks in Nea Smyrni, Greece

Now
93 °F

Passing clouds.


Feels Like: 90 °F
Forecast: 74 / 90 °F
Wind: 16 mph from South

Location: Eleftherios Venizelos International Airport

Current Time: Jul 31, 2014 at 5:37:57 PM

Latest Report: Jul 31, 2014 at 4:50 PM


Visibility: N/A

Pressure: 29.65 "Hg

Humidity: 21%

Dew point: 48 °F

Location of Nea SmyrniLocation

Historic Weather in Nea Smyrni — Graph

°F

Nea Smyrni temperature yesterday

Maximum temperature yesterday: 93 °F (at 3:20 PM)
Minimum temperature yesterday: 70 °F (at 6:50 AM)
Average temperature yesterday: 83 °F

Past Weeks' High & Low Weather Summary

 TemperatureHumidityPressure
High95 °F (Jul 28, 1:50 PM)89% (Jul 19, 10:50 PM)29.92 "Hg (Jul 19, 10:50 PM)
Low64 °F (Jul 17, 3:20 AM)21% (Jul 31, 3:50 PM)29.65 "Hg (Jul 31, 3:50 PM)
Average80 °F54%29.84 "Hg
* Reported Jul 16 4:20 PM — Jul 31 4:20 PM, Nea Smyrni, Weather by CustomWeather, © 2014

Note: Actual official high and low records may vary slightly from our data, if they occured in-between our weather recording intervals... More about our weather records

Advertising

Nea Smyrni weather history for previous 24 hours

 ConditionsComfort  
Time TempWeatherWind HumidityBarometerVisibility
4:20 PM
Jul 31
93 °FPassing clouds.17 mph23%29.65 "HgN/A
3:50 PM93 °FPassing clouds.18 mph21%29.65 "HgN/A
3:20 PM93 °FPassing clouds.16 mph24%29.68 "HgN/A
2:50 PM93 °FSunny.18 mph24%29.68 "Hg10 mi
2:20 PM93 °FSunny.16 mph23%29.68 "Hg10 mi
1:50 PM93 °FSunny.15 mph28%29.71 "Hg10 mi
1:20 PM95 °FSunny.13 mph30%29.71 "Hg10 mi
12:50 PM93 °FPassing clouds.6 mph32%29.71 "HgN/A
12:20 PM90 °FPassing clouds.7 mph43%29.71 "HgN/A
11:50 AM88 °FPassing clouds.10 mph52%29.71 "HgN/A
11:20 AM88 °FPassing clouds.9 mph49%29.74 "HgN/A
10:50 AM88 °FPassing clouds.8 mph46%29.74 "HgN/A
10:20 AM88 °FPassing clouds.3 mph43%29.74 "HgN/A
9:50 AM86 °FPassing clouds.2 mph43%29.74 "HgN/A
9:20 AM84 °FScattered clouds.1 mph48%29.74 "HgN/A
8:50 AM81 °FScattered clouds.2 mph62%29.74 "HgN/A
8:20 AM81 °FScattered clouds.1 mph62%29.77 "HgN/A
7:50 AM79 °FScattered clouds.1 mph65%29.77 "HgN/A
7:20 AM75 °FPassing clouds.1 mph74%29.77 "HgN/A
6:50 AM72 °FPassing clouds.1 mph88%29.77 "HgN/A
6:20 AM72 °FClear.5 mph83%29.77 "Hg10 mi
5:50 AM72 °FClear.No wind83%29.77 "Hg10 mi
5:20 AM73 °FClear.5 mph83%29.77 "Hg10 mi
4:50 AM73 °FClear.No wind78%29.77 "Hg10 mi
4:20 AM73 °FClear.No wind78%29.77 "Hg10 mi
3:50 AM77 °FClear.No wind79%29.77 "Hg10 mi
3:20 AM75 °FClear.No wind83%29.80 "Hg10 mi
2:50 AM75 °FClear.No wind78%29.80 "Hg10 mi
2:20 AM75 °FClear.2 mph78%29.80 "Hg10 mi
1:50 AM75 °FClear.No wind78%29.80 "Hg10 mi
1:20 AM77 °FClear.2 mph79%29.83 "Hg10 mi
12:50 AM77 °FClear.2 mph79%29.83 "Hg10 mi
12:20 AM77 °FClear.2 mph79%29.83 "Hg10 mi
11:50 PM
Jul 30
77 °FClear.5 mph79%29.83 "Hg10 mi
11:20 PM79 °FClear.No wind74%29.83 "Hg10 mi
10:50 PM81 °FClear.No wind70%29.83 "Hg10 mi
10:20 PM81 °FClear.3 mph70%29.83 "Hg10 mi
9:50 PM82 °FPassing clouds.5 mph66%29.83 "HgN/A
9:20 PM82 °FSunny.9 mph66%29.83 "Hg10 mi
8:50 PM82 °FSunny.9 mph66%29.83 "Hg10 mi
8:20 PM84 °FPassing clouds.6 mph55%29.83 "HgN/A
7:50 PM86 °FPassing clouds.5 mph55%29.83 "HgN/A
7:20 PM88 °FPassing clouds.5 mph55%29.83 "HgN/A
6:50 PM90 °FPassing clouds.8 mph49%29.83 "HgN/A
6:20 PM91 °FPassing clouds.8 mph41%29.83 "HgN/A
5:50 PM91 °FPassing clouds.7 mph41%29.83 "HgN/A
5:20 PM91 °FPassing clouds.9 mph41%29.83 "HgN/A
Weather by CustomWeather, © 2014

See weather overviewHow to use our weather pages